Location: Recife
(8.0585°S, 34.8848°W)
Time: 20:37:34
(UTC-03:00)

S-56A Canister/Altair - Pass Details

Date: 19 April 2026
Orbit: 633 x 2484 km, 38.9° (Epoch: 16 May)

Event Time Altitude Azimuth Distance (km) Brightness Sun altitude
Rises 21:27:32 0° 203° (SSW) 2,924 - -62.4°
Reaches altitude 10° 21:30:35 10° 180° (S) 2,059 - -63.2°
Maximum altitude 21:33:26 16° 141° (SE) 1,787 - -63.9°
Drops below altitude 10° 21:36:37 10° 103° (ESE) 2,330 - -64.7°
Sets 21:40:24 0° 82° (E) 3,532 - -65.6°
